Hourly Data Report for July 05, 2006

TORONTO CITY
ONTARIO

43°40'00.000" N
79°24'00.000" W
112.50 m
6158355
71508
XTO

Download Data

Hourly Data (July 2006)
Hourly Data Report for July 5, 2006
TIME
LST
Temp Definition
°C
Dew Point Definition
°C
Rel Hum Definition
%
Precip. Amount Definition
mm

Wind Dir Definition
10's deg

Wind Spd Definition
km/h
Visibility Definition
km
Stn Press Definition
kPa
Hmdx Definition


Wind Chill Definition


Weather Definition


00:00 17.9 9.2 57   LegendMM LegendMM   99.97     LegendNANA
01:00 17.1 8.9 58   LegendMM LegendMM   99.98     LegendNANA
02:00 16.2 8.1 59   LegendMM LegendMM   99.98     LegendNANA
03:00 15.6 9.0 65   LegendMM LegendMM   99.98     LegendNANA
04:00 15.1 10.6 74   LegendMM LegendMM   99.97     LegendNANA
05:00 14.8 11.3 80   LegendMM LegendMM   100.01     LegendNANA
06:00 15.1 11.8 81   LegendMM LegendMM   100.03     LegendNANA
07:00 16.6 12.8 78   LegendMM LegendMM   100.09     LegendNANA
08:00 18.4 13.6 74   LegendMM LegendMM   100.10     LegendNANA
09:00 19.6 13.4 67   LegendMM LegendMM   100.13     LegendNANA
10:00 20.3 12.5 61   LegendMM LegendMM   100.14     LegendNANA
11:00 21.5 12.2 55   LegendMM LegendMM   100.16     LegendNANA
12:00 20.5 12.7 61   LegendMM LegendMM   100.18     LegendNANA
13:00 21.1 13.6 62   LegendMM LegendMM   100.17     LegendNANA
14:00 21.7 13.3 59   LegendMM LegendMM   100.14 25   LegendNANA
15:00 22.0 12.4 54   LegendMM LegendMM   100.14     LegendNANA
16:00 21.5 12.1 55   LegendMM LegendMM   100.13     LegendNANA
17:00 21.6 11.6 53   LegendMM LegendMM   100.15     LegendNANA
18:00 20.8 12.1 57   LegendMM LegendMM   100.19     LegendNANA
19:00 19.8 11.9 60   LegendMM LegendMM   100.23     LegendNANA
20:00 19.0 10.6 58   LegendMM LegendMM   100.24     LegendNANA
21:00 18.0 10.0 59   LegendMM LegendMM   100.32     LegendNANA
22:00 17.3 10.2 63   LegendMM LegendMM   100.35     LegendNANA
23:00 16.7 10.9 69   LegendMM LegendMM   100.39     LegendNANA

Notes on Data Quality.

Legend

  • E = Estimated
  • M = Missing
  • NA = Not Available*
  • [empty] = Indicates an unobserved value
Date modified: